{"data":{"norad_id":66491,"epoch":"2026-09-20T06:04:51.913632Z","epoch_age_seconds":111147,"freshness":"FRESH","line1":"1 66491U 25263G   26263.25337863  .00009765  00000+0  36386-3 0  9995","line2":"2 66491  43.0045 332.0105 0001639 279.1899  80.8767 15.27585127 48654","mean_motion":15.27585127,"eccentricity":0.0001639,"inclination_deg":43.0045,"raan_deg":332.0105,"arg_perigee_deg":279.1899,"mean_anomaly_deg":80.8767,"bstar":0.00036386,"rev_number":4865,"period_min":94.266432328259,"perigee_km":481.90919811522,"apogee_km":484.1582898851,"semimajor_km":6861.1707440002,"source":"CELESTRAK","updated_at":"2026-09-21T09:00:35.920247Z"}}